Time,TemperatureF,DewpointF,PressureIn,WindDirection,WindDirectionDegrees,WindSpeedMPH,WindSpeedGustMPH,Humidity,HourlyPrecipIn,Conditions,Clouds,dailyrainin,SoftwareType,DateUTC
2013-01-22 00:02:00,35.0,29.0,29.66,ENE,72,3.0,17.0,78,0.00,,,0.00,,2013-01-22 09:02:00,
2013-01-22 00:11:00,35.0,29.0,29.66,ENE,72,3.0,17.0,78,0.00,,,0.00,,2013-01-22 09:11:00,
2013-01-22 00:22:00,36.0,30.0,29.66,ENE,63,9.0,17.0,78,0.00,,,0.00,,2013-01-22 09:22:00,
2013-01-22 00:32:00,36.0,29.0,29.65,NE,54,7.0,17.0,77,0.00,,,0.00,,2013-01-22 09:32:00,
2013-01-22 00:42:00,36.0,29.0,29.65,NE,54,7.0,17.0,77,0.00,,,0.00,,2013-01-22 09:42:00,
2013-01-22 00:52:00,36.0,30.0,29.66,NE,34,9.0,15.0,78,0.00,,,0.00,,2013-01-22 09:52:00,
2013-01-22 01:02:00,36.0,30.0,29.65,ENE,59,6.0,18.0,78,0.00,,,0.00,,2013-01-22 10:02:00,
2013-01-22 01:11:00,36.0,30.0,29.65,ENE,59,6.0,18.0,78,0.00,,,0.00,,2013-01-22 10:11:00,
2013-01-22 01:22:00,36.0,30.0,29.65,NE,51,6.0,16.0,78,0.00,,,0.00,,2013-01-22 10:22:00,
2013-01-22 01:32:00,36.0,30.0,29.65,NE,54,9.0,16.0,78,0.00,,,0.00,,2013-01-22 10:32:00,
2013-01-22 01:42:00,36.0,30.0,29.65,NE,54,9.0,16.0,78,0.00,,,0.00,,2013-01-22 10:42:00,
2013-01-22 01:52:00,36.0,30.0,29.65,ENE,60,7.0,15.0,78,0.00,,,0.00,,2013-01-22 10:52:00,
2013-01-22 02:02:00,36.0,30.0,29.65,NE,48,9.0,16.0,78,0.00,,,0.00,,2013-01-22 11:02:00,
2013-01-22 02:11:00,36.0,30.0,29.65,NE,48,9.0,16.0,78,0.00,,,0.00,,2013-01-22 11:11:00,
2013-01-22 02:22:00,36.0,29.0,29.65,ENE,59,7.0,16.0,77,0.00,,,0.00,,2013-01-22 11:22:00,
2013-01-22 02:32:00,36.0,29.0,29.64,ENE,64,6.0,14.0,77,0.00,,,0.00,,2013-01-22 11:32:00,
2013-01-22 02:42:00,36.0,29.0,29.64,ENE,64,6.0,14.0,77,0.00,,,0.00,,2013-01-22 11:42:00,
2013-01-22 02:53:00,36.0,29.0,29.64,ENE,62,6.0,17.0,77,0.00,,,0.00,,2013-01-22 11:53:00,
2013-01-22 03:02:00,36.0,29.0,29.63,NE,52,7.0,20.0,76,0.00,,,0.00,,2013-01-22 12:02:00,
2013-01-22 03:12:00,36.0,29.0,29.63,NE,52,7.0,20.0,76,0.00,,,0.00,,2013-01-22 12:12:00,
2013-01-22 03:22:00,37.0,30.0,29.62,NE,50,7.0,16.0,76,0.00,,,0.00,,2013-01-22 12:22:00,
2013-01-22 03:32:00,37.0,30.0,29.62,NE,50,7.0,16.0,76,0.00,,,0.00,,2013-01-22 12:32:00,
2013-01-22 03:42:00,36.0,29.0,29.62,NE,39,6.0,12.0,77,0.00,,,0.00,,2013-01-22 12:42:00,
2013-01-22 03:52:00,36.0,29.0,29.61,NE,49,8.0,14.0,76,0.00,,,0.00,,2013-01-22 12:52:00,
2013-01-22 04:03:00,36.0,29.0,29.61,East,85,6.0,14.0,75,0.00,,,0.00,,2013-01-22 13:03:00,
2013-01-22 04:12:00,36.0,29.0,29.61,East,85,6.0,14.0,75,0.00,,,0.00,,2013-01-22 13:12:00,
2013-01-22 04:22:00,37.0,30.0,29.60,ENE,74,5.0,18.0,75,0.00,,,0.00,,2013-01-22 13:22:00,
2013-01-22 04:33:00,37.0,30.0,29.60,NE,50,7.0,17.0,75,0.00,,,0.00,,2013-01-22 13:33:00,
2013-01-22 04:42:00,37.0,30.0,29.60,NE,50,7.0,17.0,75,0.00,,,0.00,,2013-01-22 13:42:00,
2013-01-22 04:52:00,37.0,30.0,29.59,NE,55,5.0,17.0,75,0.00,,,0.00,,2013-01-22 13:52:00,
2013-01-22 05:02:00,37.0,30.0,29.60,ENE,60,8.0,17.0,75,0.00,,,0.00,,2013-01-22 14:02:00,
2013-01-22 05:12:00,37.0,30.0,29.60,ENE,60,8.0,17.0,75,0.00,,,0.00,,2013-01-22 14:12:00,
2013-01-22 05:22:00,36.0,29.0,29.60,ENE,58,5.0,15.0,76,0.00,,,0.00,,2013-01-22 14:22:00,
2013-01-22 05:33:00,36.0,29.0,29.60,ENE,58,6.0,14.0,77,0.00,,,0.00,,2013-01-22 14:33:00,
2013-01-22 05:43:00,36.0,29.0,29.60,ENE,58,6.0,14.0,77,0.00,,,0.00,,2013-01-22 14:43:00,
2013-01-22 05:52:00,36.0,29.0,29.59,ENE,72,4.0,10.0,77,0.00,,,0.00,,2013-01-22 14:52:00,
2013-01-22 06:03:00,36.0,29.0,29.58,NE,36,5.0,12.0,77,0.00,,,0.00,,2013-01-22 15:03:00,
2013-01-22 06:12:00,36.0,29.0,29.58,NE,36,5.0,12.0,77,0.00,,,0.00,,2013-01-22 15:12:00,
2013-01-22 06:23:00,36.0,29.0,29.58,NE,50,5.0,10.0,77,0.00,,,0.00,,2013-01-22 15:23:00,
2013-01-22 06:33:00,36.0,29.0,29.57,ENE,66,5.0,12.0,77,0.00,,,0.00,,2013-01-22 15:33:00,
2013-01-22 06:42:00,36.0,29.0,29.57,ENE,66,5.0,12.0,77,0.00,,,0.00,,2013-01-22 15:42:00,
2013-01-22 06:52:00,36.0,29.0,29.57,East,84,5.0,10.0,76,0.00,,,0.00,,2013-01-22 15:52:00,
2013-01-22 07:03:00,37.0,30.0,29.57,East,79,7.0,17.0,75,0.00,,,0.00,,2013-01-22 16:03:00,
2013-01-22 07:12:00,37.0,30.0,29.57,East,79,7.0,17.0,75,0.00,,,0.00,,2013-01-22 16:12:00,
2013-01-22 07:23:00,37.0,29.0,29.57,ENE,70,5.0,14.0,74,0.00,,,0.00,,2013-01-22 16:23:00,
2013-01-22 07:33:00,37.0,29.0,29.57,NE,41,7.0,14.0,74,0.00,,,0.00,,2013-01-22 16:33:00,
2013-01-22 07:42:00,37.0,29.0,29.57,NE,41,7.0,14.0,74,0.00,,,0.00,,2013-01-22 16:42:00,
2013-01-22 07:53:00,37.0,29.0,29.56,ENE,61,5.0,16.0,74,0.00,,,0.00,,2013-01-22 16:53:00,
2013-01-22 08:03:00,36.0,29.0,29.56,NE,42,7.0,12.0,75,0.00,,,0.00,,2013-01-22 17:03:00,
2013-01-22 08:12:00,36.0,29.0,29.56,NE,42,7.0,12.0,75,0.00,,,0.00,,2013-01-22 17:12:00,
2013-01-22 08:22:00,37.0,30.0,29.56,ENE,64,6.0,14.0,75,0.00,,,0.00,,2013-01-22 17:22:00,
2013-01-22 08:33:00,37.0,29.0,29.56,NE,56,6.0,17.0,74,0.00,,,0.00,,2013-01-22 17:33:00,
2013-01-22 08:43:00,37.0,29.0,29.56,NE,56,6.0,17.0,74,0.00,,,0.00,,2013-01-22 17:43:00,
2013-01-22 08:53:00,37.0,29.0,29.55,NE,43,4.0,13.0,74,0.00,,,0.00,,2013-01-22 17:53:00,
2013-01-22 09:03:00,37.0,30.0,29.56,NE,54,6.0,14.0,75,0.00,,,0.00,,2013-01-22 18:03:00,
2013-01-22 09:12:00,37.0,30.0,29.56,NE,54,6.0,14.0,75,0.00,,,0.00,,2013-01-22 18:12:00,
2013-01-22 09:23:00,37.0,30.0,29.56,NE,42,7.0,17.0,75,0.00,,,0.00,,2013-01-22 18:23:00,
2013-01-22 09:33:00,37.0,30.0,29.56,ENE,70,6.0,15.0,75,0.00,,,0.00,,2013-01-22 18:33:00,
2013-01-22 09:42:00,37.0,30.0,29.56,ENE,70,6.0,15.0,75,0.00,,,0.00,,2013-01-22 18:42:00,
2013-01-22 09:53:00,36.0,29.0,29.55,NE,47,7.0,13.0,74,0.00,,,0.00,,2013-01-22 18:53:00,
2013-01-22 10:03:00,36.0,29.0,29.56,ENE,68,4.0,13.0,75,0.00,,,0.00,,2013-01-22 19:03:00,
2013-01-22 10:12:00,36.0,29.0,29.56,ENE,68,4.0,13.0,75,0.00,,,0.00,,2013-01-22 19:12:00,
2013-01-22 10:22:00,36.0,29.0,29.56,ENE,75,5.0,13.0,75,0.00,,,0.00,,2013-01-22 19:22:00,
2013-01-22 10:33:00,36.0,29.0,29.55,ENE,64,5.0,13.0,76,0.00,,,0.00,,2013-01-22 19:33:00,
2013-01-22 10:42:00,36.0,29.0,29.55,ENE,64,5.0,13.0,76,0.00,,,0.00,,2013-01-22 19:42:00,
2013-01-22 10:53:00,35.0,29.0,29.55,ENE,73,6.0,13.0,78,0.00,,,0.00,,2013-01-22 19:53:00,
2013-01-22 11:02:00,35.0,29.0,29.55,ENE,71,4.0,12.0,79,0.00,,,0.00,,2013-01-22 20:02:00,
2013-01-22 11:12:00,35.0,29.0,29.55,ENE,71,4.0,12.0,79,0.00,,,0.00,,2013-01-22 20:12:00,
2013-01-22 11:22:00,35.0,29.0,29.55,ENE,62,6.0,12.0,79,0.00,,,0.00,,2013-01-22 20:22:00,
2013-01-22 11:33:00,35.0,29.0,29.54,ENE,61,5.0,12.0,79,0.00,,,0.00,,2013-01-22 20:33:00,
2013-01-22 11:42:00,35.0,29.0,29.54,ENE,61,5.0,12.0,79,0.00,,,0.00,,2013-01-22 20:42:00,
2013-01-22 11:53:00,36.0,30.0,29.55,East,80,6.0,12.0,79,0.00,,,0.00,,2013-01-22 20:53:00,
2013-01-22 12:03:00,36.0,30.0,29.55,ENE,62,3.0,12.0,79,0.00,,,0.00,,2013-01-22 21:03:00,
2013-01-22 12:12:00,36.0,30.0,29.55,ENE,62,3.0,12.0,79,0.00,,,0.00,,2013-01-22 21:12:00,
2013-01-22 12:22:00,36.0,30.0,29.54,ENE,76,5.0,12.0,79,0.00,,,0.00,,2013-01-22 21:22:00,
2013-01-22 12:33:00,36.0,31.0,29.54,NE,52,4.0,12.0,82,0.00,,,0.00,,2013-01-22 21:33:00,
2013-01-22 12:42:00,36.0,31.0,29.54,NE,52,4.0,12.0,82,0.00,,,0.00,,2013-01-22 21:42:00,
2013-01-22 12:52:00,36.0,31.0,29.54,NE,48,6.0,13.0,83,0.00,,,0.00,,2013-01-22 21:52:00,
2013-01-22 13:02:00,35.0,30.0,29.53,NE,49,5.0,13.0,82,0.00,,,0.00,,2013-01-22 22:02:00,
2013-01-22 13:12:00,35.0,30.0,29.53,NE,49,5.0,13.0,82,0.00,,,0.00,,2013-01-22 22:12:00,
2013-01-22 13:22:00,35.0,30.0,29.53,NE,43,4.0,12.0,82,0.00,,,0.00,,2013-01-22 22:22:00,
2013-01-22 13:32:00,35.0,30.0,29.53,NE,43,4.0,12.0,82,0.00,,,0.00,,2013-01-22 22:32:00,
2013-01-22 13:42:00,36.0,31.0,29.52,NE,53,5.0,12.0,81,0.00,,,0.00,,2013-01-22 22:42:00,
2013-01-22 13:52:00,36.0,30.0,29.52,NE,56,3.0,10.0,80,0.00,,,0.00,,2013-01-22 22:52:00,
2013-01-22 14:02:00,36.0,30.0,29.52,NE,44,3.0,13.0,79,0.00,,,0.00,,2013-01-22 23:02:00,
2013-01-22 14:12:00,36.0,30.0,29.52,NE,44,3.0,13.0,79,0.00,,,0.00,,2013-01-22 23:12:00,
2013-01-22 14:22:00,36.0,30.0,29.52,NE,36,3.0,7.0,79,0.00,,,0.00,,2013-01-22 23:22:00,
2013-01-22 14:33:00,36.0,30.0,29.51,ENE,74,3.0,12.0,78,0.00,,,0.00,,2013-01-22 23:33:00,
2013-01-22 14:42:00,36.0,30.0,29.51,ENE,74,3.0,12.0,78,0.00,,,0.00,,2013-01-22 23:42:00,
2013-01-22 14:52:00,36.0,30.0,29.51,ENE,74,4.0,10.0,78,0.00,,,0.00,,2013-01-22 23:52:00,
2013-01-22 15:02:00,36.0,30.0,29.51,NE,50,3.0,10.0,79,0.00,,,0.00,,2013-01-23 00:02:00,
2013-01-22 15:12:00,36.0,30.0,29.51,NE,50,3.0,10.0,79,0.00,,,0.00,,2013-01-23 00:12:00,
2013-01-22 15:22:00,36.0,30.0,29.50,NE,37,3.0,12.0,79,0.00,,,0.00,,2013-01-23 00:22:00,
2013-01-22 15:33:00,36.0,29.0,29.49,ENE,64,6.0,12.0,77,0.00,,,0.00,,2013-01-23 00:33:00,
2013-01-22 15:42:00,36.0,29.0,29.49,ENE,64,6.0,12.0,77,0.00,,,0.00,,2013-01-23 00:42:00,
2013-01-22 15:52:00,36.0,29.0,29.49,NE,37,9.0,17.0,76,0.00,,,0.00,,2013-01-23 00:52:00,
2013-01-22 16:02:00,37.0,30.0,29.48,NE,39,5.0,12.0,75,0.00,,,0.00,,2013-01-23 01:02:00,
2013-01-22 16:12:00,37.0,30.0,29.48,NE,39,5.0,12.0,75,0.00,,,0.00,,2013-01-23 01:12:00,
2013-01-22 16:22:00,37.0,30.0,29.48,NE,46,5.0,16.0,75,0.00,,,0.00,,2013-01-23 01:22:00,
2013-01-22 16:32:00,36.0,29.0,29.48,ENE,75,4.0,9.0,76,0.00,,,0.00,,2013-01-23 01:32:00,
2013-01-22 16:42:00,36.0,29.0,29.48,ENE,75,4.0,9.0,76,0.00,,,0.00,,2013-01-23 01:42:00,
2013-01-22 16:52:00,36.0,29.0,29.48,NE,54,4.0,12.0,77,0.00,,,0.00,,2013-01-23 01:52:00,
2013-01-22 17:03:00,36.0,30.0,29.46,East,81,4.0,16.0,80,0.00,,,0.00,,2013-01-23 02:03:00,
2013-01-22 17:12:00,36.0,30.0,29.46,East,81,4.0,16.0,80,0.00,,,0.00,,2013-01-23 02:12:00,
2013-01-22 17:22:00,35.0,29.0,29.46,NE,41,6.0,12.0,80,0.00,,,0.00,,2013-01-23 02:22:00,
2013-01-22 17:32:00,35.0,30.0,29.44,NE,50,6.0,15.0,81,0.00,,,0.00,,2013-01-23 02:32:00,
2013-01-22 17:42:00,35.0,30.0,29.44,NE,50,6.0,15.0,81,0.00,,,0.00,,2013-01-23 02:42:00,
2013-01-22 17:52:00,35.0,30.0,29.44,ENE,57,6.0,16.0,81,0.00,,,0.00,,2013-01-23 02:52:00,
2013-01-22 18:02:00,36.0,30.0,29.44,ENE,62,5.0,12.0,80,0.00,,,0.00,,2013-01-23 03:02:00,
2013-01-22 18:12:00,36.0,30.0,29.44,ENE,62,5.0,12.0,80,0.00,,,0.00,,2013-01-23 03:12:00,
2013-01-22 18:22:00,36.0,30.0,29.44,ENE,76,3.0,12.0,80,0.00,,,0.00,,2013-01-23 03:22:00,
2013-01-22 18:32:00,36.0,30.0,29.43,ENE,67,5.0,13.0,78,0.00,,,0.00,,2013-01-23 03:32:00,
2013-01-22 18:42:00,36.0,30.0,29.43,ENE,67,5.0,13.0,78,0.00,,,0.00,,2013-01-23 03:42:00,
2013-01-22 18:52:00,36.0,29.0,29.43,East,101,3.0,12.0,77,0.00,,,0.00,,2013-01-23 03:52:00,
2013-01-22 19:02:00,37.0,29.0,29.42,ENE,66,5.0,10.0,74,0.00,,,0.00,,2013-01-23 04:02:00,
2013-01-22 19:12:00,37.0,29.0,29.42,ENE,66,5.0,10.0,74,0.00,,,0.00,,2013-01-23 04:12:00,
2013-01-22 19:22:00,37.0,29.0,29.42,NE,56,6.0,12.0,73,0.00,,,0.00,,2013-01-23 04:22:00,
2013-01-22 19:32:00,37.0,29.0,29.42,ENE,57,5.0,13.0,73,0.00,,,0.00,,2013-01-23 04:32:00,
2013-01-22 19:42:00,37.0,29.0,29.42,ENE,57,5.0,13.0,73,0.00,,,0.00,,2013-01-23 04:42:00,
2013-01-22 19:52:00,36.0,29.0,29.41,ENE,64,5.0,12.0,74,0.00,,,0.00,,2013-01-23 04:52:00,
2013-01-22 20:03:00,36.0,29.0,29.41,NE,53,7.0,17.0,74,0.00,,,0.00,,2013-01-23 05:03:00,
2013-01-22 20:12:00,36.0,29.0,29.41,NE,53,7.0,17.0,74,0.00,,,0.00,,2013-01-23 05:12:00,
2013-01-22 20:22:00,37.0,29.0,29.41,ENE,58,8.0,20.0,74,0.00,,,0.00,,2013-01-23 05:22:00,
2013-01-22 20:33:00,37.0,29.0,29.41,ENE,63,8.0,17.0,74,0.00,,,0.00,,2013-01-23 05:33:00,
2013-01-22 20:42:00,37.0,29.0,29.41,ENE,63,8.0,17.0,74,0.00,,,0.00,,2013-01-23 05:42:00,
2013-01-22 20:52:00,36.0,29.0,29.41,East,79,6.0,13.0,74,0.00,,,0.00,,2013-01-23 05:52:00,
2013-01-22 21:02:00,37.0,29.0,29.41,ENE,65,7.0,17.0,73,0.00,,,0.00,,2013-01-23 06:02:00,
2013-01-22 21:12:00,37.0,29.0,29.41,ENE,65,7.0,17.0,73,0.00,,,0.00,,2013-01-23 06:12:00,
2013-01-22 21:22:00,37.0,29.0,29.41,ENE,78,5.0,17.0,73,0.00,,,0.00,,2013-01-23 06:22:00,
2013-01-22 21:32:00,37.0,29.0,29.41,East,96,5.0,13.0,73,0.00,,,0.00,,2013-01-23 06:32:00,
2013-01-22 21:42:00,37.0,29.0,29.41,East,96,5.0,13.0,73,0.00,,,0.00,,2013-01-23 06:42:00,
2013-01-22 21:52:00,37.0,29.0,29.41,ENE,76,5.0,13.0,73,0.01,,,0.01,,2013-01-23 06:52:00,
2013-01-22 22:02:00,36.0,29.0,29.41,ENE,63,4.0,9.0,74,0.01,,,0.01,,2013-01-23 07:02:00,
2013-01-22 22:22:00,36.0,29.0,29.41,East,84,4.0,10.0,74,0.01,,,0.01,,2013-01-23 07:22:00,
2013-01-22 22:33:00,36.0,29.0,29.41,East,82,2.0,6.0,75,0.01,,,0.01,,2013-01-23 07:33:00,
2013-01-22 22:42:00,36.0,29.0,29.41,East,82,2.0,6.0,75,0.01,,,0.01,,2013-01-23 07:42:00,
2013-01-22 22:52:00,36.0,29.0,29.41,East,79,4.0,8.0,75,0.00,,,0.01,,2013-01-23 07:52:00,
2013-01-22 23:02:00,36.0,29.0,29.41,East,79,3.0,9.0,75,0.00,,,0.01,,2013-01-23 08:02:00,
2013-01-22 23:12:00,36.0,29.0,29.41,East,79,3.0,9.0,75,0.00,,,0.01,,2013-01-23 08:12:00,
2013-01-22 23:22:00,36.0,30.0,29.41,East,81,3.0,9.0,78,0.00,,,0.01,,2013-01-23 08:22:00,
2013-01-22 23:32:00,35.0,30.0,29.41,East,82,3.0,7.0,81,0.00,,,0.01,,2013-01-23 08:32:00,
2013-01-22 23:42:00,35.0,30.0,29.41,East,82,3.0,7.0,81,0.00,,,0.01,,2013-01-23 08:42:00,
2013-01-22 23:52:00,35.0,29.0,29.40,NE,52,2.0,9.0,80,0.00,,,0.01,,2013-01-23 08:52:00,